GFSNE_500_temp_057.txt.gz
Temp
-16 -16 -16 -16 -16 -16 -16 -16 -16 -16 -17 -18 -18 -19 -19 -19 -19 -19 -19 -20 -20 -21 -21 -21 -22 -22 -23 -23 -23 -25 -26 -28 -29 -30 -31 -32 -32 -33
-16 -16 -16 -16 -16 -16 -16 -16 -17 -17 -17 -18 -19 -19 -19 -19 -20 -20 -20 -20 -21 -21 -22 -22 -22 -23 -24 -24 -25 -27 -27 -29 -30 -32 -32 -33 -33 -33
-16 -16 -16 -16 -16 -16 -17 -17 -17 -18 -18 -18 -18 -19 -19 -20 -20 -20 -20 -21 -21 -22 -22 -22 -23 -24 -24 -25 -26 -28 -30 -31 -32 -32 -33 -33 -33 -33
-17 -16 -16 -17 -17 -17 -17 -18 -18 -19 -19 -19 -19 -20 -20 -20 -20 -21 -21 -21 -22 -22 -22 -22 -23 -23 -24 -26 -28 -30 -32 -33 -34 -34 -33 -34 -34 -34
-17 -17 -17 -17 -17 -17 -18 -18 -19 -19 -19 -19 -19 -20 -20 -21 -21 -21 -21 -21 -22 -22 -23 -23 -24 -24 -26 -27 -29 -31 -32 -33 -34 -35 -35 -35 -35 -35
-17 -17 -17 -17 -17 -18 -18 -19 -19 -19 -19 -19 -20 -20 -20 -21 -21 -21 -21 -22 -22 -23 -24 -24 -25 -25 -27 -29 -30 -32 -34 -34 -35 -36 -36 -36 -36 -35
-18 -17 -17 -18 -18 -18 -18 -19 -19 -19 -19 -20 -20 -20 -21 -21 -21 -22 -21 -22 -22 -24 -24 -24 -25 -26 -28 -30 -31 -32 -33 -34 -36 -36 -36 -36 -36 -36
-18 -18 -18 -18 -18 -19 -19 -19 -19 -19 -20 -20 -20 -21 -21 -21 -22 -22 -22 -22 -22 -23 -24 -24 -26 -27 -29 -31 -32 -32 -33 -34 -36 -36 -36 -36 -36 -36
-18 -18 -18 -18 -19 -19 -19 -19 -19 -20 -20 -20 -20 -21 -21 -22 -22 -22 -22 -22 -23 -24 -25 -25 -28 -28 -31 -32 -32 -33 -35 -36 -36 -36 -36 -36 -36 -36
-18 -18 -18 -19 -19 -19 -19 -19 -20 -20 -20 -20 -20 -21 -22 -22 -22 -23 -23 -23 -24 -25 -27 -27 -29 -31 -32 -33 -33 -33 -35 -36 -36 -37 -36 -36 -36 -36
-18 -19 -19 -19 -19 -19 -19 -20 -20 -20 -21 -21 -21 -22 -23 -23 -24 -24 -25 -25 -25 -25 -28 -29 -30 -31 -32 -33 -33 -34 -35 -36 -37 -37 -37 -37 -36 -36
-19 -19 -19 -19 -20 -20 -20 -20 -20 -20 -21 -21 -22 -23 -23 -24 -25 -26 -26 -26 -26 -26 -29 -30 -31 -32 -33 -34 -34 -35 -35 -36 -37 -37 -37 -37 -36 -37
-19 -19 -19 -20 -20 -20 -20 -20 -20 -21 -21 -22 -22 -23 -24 -25 -25 -26 -26 -27 -28 -29 -31 -31 -32 -33 -34 -34 -35 -36 -37 -37 -37 -37 -37 -37 -37 -37
-19 -19 -20 -20 -20 -20 -20 -20 -21 -21 -22 -22 -23 -24 -24 -25 -26 -26 -28 -29 -30 -31 -31 -32 -33 -34 -35 -35 -36 -37 -37 -37 -37 -37 -37 -37 -37 -37
-19 -19 -20 -20 -20 -20 -21 -21 -22 -22 -22 -23 -24 -25 -25 -26 -26 -27 -28 -30 -30 -31 -32 -33 -34 -35 -36 -37 -37 -37 -37 -37 -37 -37 -37 -37 -37 -37
-20 -20 -20 -20 -21 -21 -22 -22 -23 -23 -24 -24 -25 -25 -26 -26 -27 -29 -30 -31 -31 -32 -34 -35 -35 -36 -37 -37 -37 -37 -37 -36 -37 -37 -37 -37 -37 -37
-20 -20 -21 -21 -21 -22 -22 -23 -24 -25 -25 -25 -26 -26 -27 -28 -29 -30 -31 -32 -32 -33 -34 -36 -36 -37 -37 -38 -38 -37 -37 -37 -37 -38 -37 -37 -36 -36
-20 -21 -21 -22 -22 -22 -23 -24 -25 -26 -26 -26 -27 -28 -28 -30 -31 -31 -32 -33 -33 -34 -35 -36 -37 -38 -38 -38 -38 -37 -37 -38 -38 -37 -37 -37 -36 -37
-21 -21 -22 -23 -23 -24 -24 -25 -26 -26 -27 -27 -28 -29 -31 -31 -31 -32 -33 -33 -34 -35 -36 -37 -37 -38 -38 -38 -38 -38 -38 -38 -38 -37 -37 -37 -37 -37
-22 -23 -23 -23 -24 -25 -25 -26 -27 -27 -28 -28 -30 -31 -31 -32 -32 -33 -33 -34 -35 -36 -37 -37 -38 -39 -38 -38 -38 -38 -38 -38 -38 -37 -37 -37 -37 -37
-23 -23 -24 -24 -25 -26 -26 -27 -28 -28 -29 -30 -31 -32 -32 -32 -33 -34 -34 -34 -36 -37 -37 -39 -39 -39 -39 -39 -39 -38 -38 -38 -38 -38 -37 -37 -37 -37
-24 -25 -25 -26 -26 -27 -28 -28 -28 -30 -31 -31 -32 -32 -33 -33 -34 -34 -35 -36 -37 -38 -38 -40 -40 -40 -39 -39 -39 -38 -38 -38 -38 -38 -38 -37 -37 -37
-25 -26 -26 -27 -27 -28 -28 -29 -30 -31 -32 -32 -33 -33 -34 -34 -35 -35 -37 -38 -38 -38 -39 -40 -40 -40 -39 -39 -39 -39 -38 -38 -38 -38 -38 -37 -37 -37

GFSNE_500_temp_060.txt.gz
Temp
-16 -16 -17 -16 -16 -16 -16 -16 -16 -16 -16 -17 -17 -18 -18 -18 -18 -19 -19 -19 -19 -20 -20 -20 -21 -21 -21 -22 -22 -23 -23 -24 -24 -25 -25 -27 -29 -30
-16 -16 -16 -16 -16 -16 -16 -16 -16 -17 -17 -17 -17 -18 -18 -19 -19 -19 -19 -19 -20 -20 -21 -21 -21 -21 -22 -22 -23 -23 -24 -24 -25 -27 -29 -30 -32 -32
-16 -16 -16 -16 -16 -16 -17 -17 -17 -17 -17 -18 -18 -18 -19 -19 -19 -19 -19 -20 -20 -20 -21 -21 -22 -22 -23 -23 -24 -24 -24 -25 -26 -28 -31 -32 -33 -33
-16 -17 -16 -17 -17 -17 -17 -17 -18 -18 -18 -18 -18 -19 -19 -19 -19 -19 -20 -20 -20 -21 -21 -22 -22 -22 -23 -23 -24 -24 -24 -25 -27 -29 -31 -33 -33 -34
-17 -17 -17 -17 -17 -17 -17 -17 -18 -18 -18 -18 -18 -19 -19 -19 -19 -20 -20 -20 -20 -21 -22 -22 -23 -23 -24 -24 -25 -25 -25 -26 -28 -30 -32 -33 -34 -35
-17 -17 -17 -17 -17 -17 -18 -18 -18 -18 -18 -18 -19 -19 -19 -20 -20 -20 -20 -20 -21 -22 -22 -23 -24 -24 -24 -24 -25 -25 -25 -27 -29 -31 -32 -33 -34 -35
-17 -17 -17 -17 -18 -18 -18 -18 -18 -18 -19 -19 -19 -19 -20 -20 -20 -20 -20 -20 -21 -22 -22 -23 -24 -24 -25 -25 -25 -25 -26 -28 -30 -32 -33 -34 -34 -35
-17 -17 -17 -18 -18 -18 -18 -18 -19 -19 -19 -20 -20 -20 -20 -21 -21 -20 -21 -20 -21 -23 -22 -23 -24 -24 -24 -25 -25 -25 -27 -30 -31 -32 -33 -33 -35 -36
-17 -18 -18 -18 -18 -18 -18 -19 -19 -20 -20 -20 -20 -20 -20 -21 -21 -21 -21 -21 -22 -23 -23 -22 -24 -24 -24 -25 -25 -27 -29 -31 -32 -33 -33 -35 -36 -37
-18 -18 -18 -18 -18 -19 -19 -19 -20 -20 -20 -20 -20 -20 -21 -21 -21 -21 -21 -21 -22 -23 -24 -23 -25 -24 -25 -26 -27 -29 -31 -32 -33 -34 -34 -36 -36 -37
-18 -18 -18 -18 -19 -19 -19 -20 -20 -20 -20 -20 -20 -21 -21 -21 -22 -22 -22 -22 -22 -23 -25 -25 -26 -26 -26 -28 -30 -31 -32 -33 -34 -34 -35 -36 -37 -37
-18 -18 -19 -19 -19 -19 -20 -20 -20 -20 -21 -21 -21 -21 -21 -22 -22 -23 -24 -24 -25 -24 -26 -26 -27 -27 -27 -29 -31 -32 -33 -34 -35 -35 -36 -37 -37 -37
-19 -19 -19 -19 -19 -20 -20 -20 -20 -20 -21 -21 -21 -21 -22 -23 -24 -24 -25 -26 -26 -26 -27 -27 -27 -29 -30 -31 -32 -33 -34 -35 -36 -36 -37 -37 -37 -37
-19 -19 -19 -20 -20 -20 -21 -20 -20 -20 -21 -21 -22 -22 -23 -23 -24 -25 -26 -27 -27 -27 -28 -29 -30 -30 -31 -32 -33 -34 -35 -35 -37 -37 -37 -37 -37 -37
-19 -19 -20 -20 -21 -20 -20 -20 -21 -21 -21 -22 -22 -23 -23 -24 -25 -26 -26 -27 -27 -29 -29 -30 -31 -31 -32 -33 -34 -35 -36 -37 -37 -37 -37 -37 -37 -37
-20 -21 -20 -20 -20 -21 -21 -21 -21 -21 -22 -22 -23 -24 -24 -25 -26 -26 -27 -27 -28 -29 -31 -31 -32 -32 -33 -34 -35 -36 -37 -37 -37 -37 -37 -37 -37 -37
-20 -20 -21 -21 -21 -21 -21 -21 -21 -21 -23 -23 -24 -24 -25 -26 -27 -27 -28 -28 -29 -29 -30 -32 -32 -33 -34 -35 -36 -37 -38 -38 -38 -38 -38 -38 -37 -37
-21 -21 -21 -20 -21 -21 -21 -21 -22 -23 -24 -24 -25 -25 -26 -27 -27 -28 -29 -29 -30 -31 -31 -32 -33 -34 -34 -36 -37 -38 -38 -38 -38 -38 -38 -38 -37 -37
-21 -21 -21 -20 -21 -21 -22 -23 -23 -24 -24 -25 -26 -26 -27 -28 -29 -29 -29 -30 -31 -32 -32 -33 -34 -35 -36 -37 -38 -38 -38 -38 -38 -38 -38 -38 -38 -37
-20 -20 -21 -21 -22 -22 -23 -23 -24 -25 -26 -26 -27 -28 -28 -29 -29 -30 -31 -31 -32 -33 -33 -34 -35 -36 -37 -38 -38 -38 -38 -38 -38 -38 -38 -38 -38 -37
-21 -21 -22 -23 -23 -23 -24 -25 -25 -26 -27 -27 -28 -29 -30 -30 -31 -31 -32 -32 -33 -34 -35 -35 -37 -38 -38 -39 -39 -39 -39 -39 -39 -39 -38 -38 -38 -37
-22 -23 -23 -24 -24 -25 -25 -26 -27 -27 -28 -29 -30 -30 -31 -31 -32 -32 -33 -33 -34 -35 -35 -36 -38 -39 -39 -40 -40 -40 -39 -39 -39 -39 -38 -38 -38 -38
-24 -24 -25 -25 -26 -26 -27 -27 -28 -29 -30 -30 -31 -31 -32 -32 -33 -33 -34 -35 -35 -36 -36 -38 -39 -39 -40 -40 -40 -40 -39 -39 -39 -39 -38 -38 -38 -38

GFSNE_500_temp_063.txt.gz
Temp
-16 -16 -16 -16 -16 -16 -17 -17 -17 -16 -17 -17 -17 -18 -18 -17 -17 -17 -18 -18 -18 -18 -19 -19 -19 -20 -20 -20 -20 -20 -21 -22 -22 -23 -23 -24 -24 -25
-16 -16 -16 -16 -17 -17 -17 -17 -17 -17 -17 -17 -18 -18 -18 -18 -18 -18 -18 -18 -19 -19 -19 -20 -20 -20 -20 -20 -21 -21 -22 -22 -23 -23 -24 -24 -25 -26
-16 -16 -16 -16 -17 -17 -17 -17 -17 -17 -17 -17 -17 -18 -18 -18 -18 -18 -18 -19 -19 -19 -20 -20 -20 -20 -21 -21 -21 -22 -23 -23 -23 -24 -24 -25 -25 -27
-16 -16 -16 -16 -16 -16 -17 -17 -17 -17 -17 -18 -18 -18 -18 -18 -18 -18 -19 -19 -19 -20 -20 -21 -21 -21 -21 -22 -22 -23 -23 -23 -24 -24 -24 -25 -26 -27
-16 -16 -16 -16 -17 -17 -16 -17 -17 -17 -17 -17 -18 -18 -18 -18 -18 -19 -19 -19 -20 -20 -21 -21 -21 -21 -22 -22 -23 -23 -24 -24 -24 -25 -25 -25 -27 -29
-16 -16 -16 -16 -16 -17 -17 -17 -17 -17 -18 -18 -18 -18 -18 -19 -19 -19 -20 -20 -20 -21 -21 -21 -21 -22 -23 -23 -23 -24 -24 -24 -24 -25 -25 -25 -27 -30
-16 -16 -17 -17 -17 -17 -17 -17 -17 -17 -18 -18 -18 -18 -19 -19 -19 -20 -20 -20 -21 -21 -21 -22 -22 -22 -23 -23 -24 -24 -24 -24 -25 -25 -25 -27 -29 -31
-17 -17 -17 -17 -17 -17 -17 -18 -18 -18 -18 -18 -19 -19 -20 -20 -20 -20 -20 -21 -21 -21 -21 -21 -22 -22 -23 -24 -24 -24 -24 -25 -25 -26 -27 -29 -30 -32
-17 -17 -17 -17 -17 -18 -18 -18 -18 -19 -19 -19 -20 -20 -20 -21 -20 -21 -21 -21 -21 -21 -21 -21 -22 -22 -23 -24 -25 -25 -25 -25 -26 -27 -29 -30 -31 -33
-17 -17 -17 -18 -18 -18 -18 -19 -19 -19 -19 -20 -20 -20 -21 -20 -20 -20 -21 -21 -21 -22 -22 -22 -23 -23 -24 -25 -25 -25 -25 -26 -27 -29 -30 -31 -33 -34
-17 -18 -18 -18 -18 -18 -19 -19 -19 -19 -20 -20 -20 -21 -21 -21 -21 -21 -21 -21 -21 -22 -23 -23 -23 -24 -24 -25 -26 -27 -27 -27 -29 -30 -31 -33 -34 -35
-18 -18 -18 -18 -19 -19 -19 -19 -20 -20 -20 -21 -21 -21 -21 -21 -21 -21 -21 -21 -22 -23 -24 -23 -24 -25 -24 -26 -27 -28 -28 -29 -30 -31 -32 -34 -35 -36
-18 -18 -18 -19 -19 -19 -20 -20 -20 -21 -21 -20 -21 -21 -21 -21 -21 -21 -22 -22 -23 -24 -25 -25 -25 -27 -27 -27 -28 -29 -30 -31 -32 -33 -34 -35 -36 -37
-19 -19 -19 -19 -19 -20 -20 -20 -21 -20 -21 -20 -21 -21 -21 -21 -21 -22 -23 -23 -24 -25 -26 -27 -27 -28 -28 -29 -29 -31 -31 -32 -33 -34 -35 -36 -37 -37
-19 -19 -20 -21 -21 -21 -20 -20 -21 -21 -20 -21 -21 -21 -21 -21 -22 -23 -24 -24 -25 -26 -27 -28 -28 -29 -29 -30 -31 -31 -32 -33 -34 -35 -36 -37 -37 -37
-20 -20 -20 -20 -20 -20 -20 -21 -21 -21 -21 -21 -21 -21 -21 -22 -22 -23 -24 -25 -26 -27 -28 -29 -29 -30 -30 -31 -32 -32 -33 -34 -35 -36 -36 -37 -37 -36
-20 -20 -20 -20 -20 -20 -20 -21 -21 -21 -21 -21 -21 -22 -22 -22 -23 -24 -25 -25 -26 -27 -28 -30 -30 -30 -31 -32 -33 -34 -34 -35 -36 -36 -37 -37 -37 -37
-20 -21 -21 -20 -21 -21 -21 -21 -21 -21 -21 -21 -22 -23 -23 -24 -25 -25 -26 -27 -27 -29 -30 -30 -30 -31 -32 -33 -34 -34 -35 -36 -37 -37 -38 -38 -38 -37
-20 -21 -21 -21 -21 -21 -21 -21 -21 -21 -22 -23 -23 -24 -24 -25 -26 -27 -27 -28 -29 -30 -30 -31 -31 -32 -33 -34 -35 -35 -36 -37 -37 -38 -38 -38 -38 -38
-21 -21 -21 -21 -21 -21 -21 -21 -22 -23 -23 -23 -24 -25 -25 -26 -27 -28 -29 -30 -30 -31 -31 -32 -33 -33 -33 -34 -35 -37 -37 -38 -38 -38 -38 -38 -38 -38
-21 -21 -21 -21 -21 -22 -22 -22 -23 -23 -24 -25 -25 -26 -27 -28 -29 -29 -30 -31 -31 -32 -33 -33 -34 -34 -35 -35 -36 -38 -39 -39 -39 -39 -39 -38 -38 -38
-22 -22 -22 -22 -22 -22 -23 -23 -24 -25 -26 -26 -27 -28 -29 -29 -30 -31 -31 -32 -33 -33 -33 -34 -35 -35 -36 -37 -38 -39 -39 -40 -39 -39 -39 -38 -38 -38
-22 -22 -23 -23 -24 -24 -25 -25 -26 -26 -27 -28 -29 -29 -30 -31 -31 -32 -33 -33 -34 -35 -35 -35 -36 -36 -38 -38 -39 -40 -40 -40 -40 -39 -39 -39 -38 -38

GFSNE_500_temp_066.txt.gz
Temp
-15 -15 -15 -15 -15 -16 -16 -15 -15 -15 -16 -16 -17 -16 -16 -17 -17 -17 -17 -17 -17 -17 -17 -18 -18 -18 -18 -19 -19 -19 -20 -20 -20 -21 -21 -21 -22 -23
-15 -15 -16 -16 -16 -16 -16 -16 -16 -16 -16 -16 -17 -16 -17 -17 -17 -17 -17 -17 -17 -18 -18 -18 -18 -18 -19 -19 -20 -20 -20 -21 -21 -21 -22 -22 -23 -23
-16 -16 -16 -16 -16 -16 -15 -16 -16 -16 -16 -16 -16 -17 -17 -17 -17 -17 -17 -18 -18 -18 -18 -18 -19 -19 -19 -20 -20 -21 -20 -21 -21 -22 -22 -22 -23 -23
-16 -16 -16 -16 -15 -15 -15 -16 -16 -16 -16 -16 -17 -17 -17 -17 -17 -17 -18 -18 -18 -19 -19 -19 -19 -19 -20 -20 -21 -21 -21 -21 -21 -22 -22 -23 -24 -24
-16 -15 -15 -15 -16 -16 -16 -16 -16 -16 -17 -17 -17 -17 -17 -17 -18 -18 -18 -19 -19 -19 -19 -19 -20 -20 -21 -21 -21 -21 -21 -21 -22 -22 -23 -24 -24 -25
-15 -15 -15 -16 -16 -16 -16 -16 -16 -17 -17 -17 -17 -17 -18 -18 -18 -18 -19 -19 -19 -20 -20 -20 -20 -21 -21 -21 -21 -21 -21 -22 -23 -23 -24 -24 -25 -25
-16 -15 -15 -16 -16 -16 -16 -16 -16 -16 -17 -17 -17 -17 -18 -18 -18 -18 -19 -19 -19 -20 -20 -21 -21 -21 -21 -21 -21 -22 -22 -23 -23 -24 -25 -25 -25 -25
-16 -16 -16 -16 -16 -16 -16 -17 -17 -17 -17 -18 -18 -18 -18 -19 -19 -19 -19 -20 -20 -20 -21 -21 -21 -21 -21 -21 -22 -23 -23 -23 -24 -25 -25 -26 -25 -26
-16 -16 -16 -16 -17 -17 -17 -17 -17 -18 -18 -18 -19 -19 -19 -19 -19 -20 -20 -20 -20 -21 -21 -20 -21 -21 -21 -22 -23 -23 -24 -24 -25 -25 -26 -26 -26 -26
-16 -16 -17 -17 -17 -17 -17 -17 -18 -18 -19 -18 -18 -19 -19 -20 -20 -20 -20 -21 -21 -21 -21 -21 -21 -21 -21 -22 -23 -24 -25 -25 -25 -26 -27 -27 -27 -28
-16 -16 -17 -17 -17 -18 -17 -17 -17 -18 -19 -19 -18 -19 -20 -20 -20 -21 -21 -21 -21 -21 -21 -21 -21 -21 -21 -22 -24 -25 -25 -26 -27 -27 -27 -27 -28 -30
-17 -17 -17 -17 -18 -17 -18 -17 -17 -18 -18 -19 -19 -20 -20 -21 -20 -20 -20 -21 -21 -21 -21 -21 -21 -22 -22 -23 -24 -26 -26 -26 -27 -28 -28 -29 -30 -32
-17 -17 -17 -18 -18 -18 -18 -17 -18 -19 -19 -20 -20 -20 -20 -20 -20 -20 -20 -21 -21 -21 -21 -21 -22 -23 -23 -23 -25 -26 -27 -28 -28 -29 -29 -31 -32 -33
-18 -18 -18 -18 -19 -17 -18 -18 -19 -19 -20 -21 -20 -20 -20 -21 -20 -21 -21 -21 -21 -21 -22 -23 -23 -23 -24 -25 -26 -28 -29 -29 -29 -30 -31 -32 -33 -35
-17 -17 -17 -17 -18 -18 -18 -19 -19 -20 -20 -20 -20 -21 -21 -21 -21 -21 -21 -21 -21 -22 -23 -24 -24 -25 -26 -27 -27 -28 -29 -30 -30 -31 -32 -33 -34 -36
-17 -18 -18 -18 -18 -19 -20 -20 -20 -20 -20 -21 -21 -21 -21 -21 -21 -21 -21 -22 -22 -23 -24 -25 -26 -27 -27 -28 -28 -29 -30 -31 -32 -33 -34 -35 -36 -37
-18 -18 -18 -18 -19 -20 -19 -20 -20 -20 -21 -21 -22 -22 -22 -21 -22 -22 -22 -22 -24 -25 -26 -27 -27 -28 -28 -29 -30 -31 -32 -32 -33 -34 -35 -36 -37 -37
-18 -18 -19 -19 -20 -20 -20 -21 -20 -21 -21 -22 -22 -22 -22 -22 -22 -23 -24 -24 -25 -25 -26 -27 -28 -29 -29 -30 -31 -32 -33 -33 -34 -35 -36 -37 -37 -38
-19 -20 -20 -20 -20 -21 -21 -21 -22 -22 -22 -22 -22 -22 -22 -23 -23 -24 -24 -25 -25 -26 -27 -28 -29 -30 -30 -31 -33 -33 -34 -35 -35 -36 -37 -38 -38 -38
-20 -21 -21 -21 -21 -22 -22 -22 -22 -22 -22 -22 -22 -23 -23 -24 -24 -24 -25 -26 -27 -28 -29 -30 -31 -31 -32 -33 -33 -35 -35 -36 -36 -38 -39 -39 -39 -38
-21 -21 -21 -22 -22 -22 -22 -22 -22 -22 -22 -23 -23 -23 -24 -24 -25 -26 -27 -28 -29 -30 -30 -31 -32 -33 -34 -34 -35 -35 -36 -37 -38 -38 -39 -39 -39 -38
-22 -22 -22 -22 -22 -23 -22 -22 -23 -23 -24 -23 -24 -24 -25 -26 -27 -28 -29 -30 -30 -31 -32 -32 -33 -34 -35 -35 -36 -36 -37 -38 -40 -40 -40 -40 -39 -39
-23 -22 -22 -22 -22 -23 -24 -24 -24 -23 -24 -24 -25 -26 -27 -28 -29 -30 -30 -31 -31 -32 -33 -34 -34 -35 -35 -35 -36 -37 -38 -39 -40 -40 -40 -40 -39 -39

GFSNE_500_temp_069.txt.gz
Temp
-15 -15 -15 -15 -16 -16 -16 -15 -15 -15 -15 -15 -15 -16 -15 -15 -15 -16 -16 -16 -17 -17 -17 -17 -17 -17 -18 -18 -18 -18 -18 -18 -19 -19 -19 -19 -20 -20
-15 -15 -15 -15 -15 -16 -16 -15 -16 -16 -16 -16 -16 -15 -16 -16 -16 -16 -16 -16 -17 -17 -17 -17 -18 -18 -18 -18 -19 -18 -19 -19 -19 -19 -20 -20 -20 -21
-15 -15 -15 -15 -15 -15 -16 -16 -16 -16 -15 -16 -16 -16 -16 -16 -16 -16 -16 -17 -16 -17 -17 -18 -18 -18 -18 -19 -19 -19 -19 -19 -20 -20 -20 -21 -21 -21
-15 -15 -15 -15 -15 -16 -15 -15 -15 -15 -15 -16 -16 -16 -16 -16 -16 -17 -17 -17 -17 -17 -17 -18 -18 -18 -19 -19 -19 -19 -20 -20 -21 -21 -21 -21 -21 -21
-15 -15 -15 -15 -15 -15 -16 -15 -15 -15 -16 -16 -16 -16 -16 -17 -16 -17 -17 -17 -17 -17 -18 -18 -18 -19 -19 -19 -20 -20 -20 -21 -21 -20 -20 -21 -21 -22
-15 -15 -15 -15 -15 -15 -15 -15 -15 -16 -15 -15 -16 -16 -17 -17 -17 -17 -17 -17 -18 -18 -18 -19 -19 -19 -19 -20 -20 -20 -20 -21 -20 -20 -20 -21 -21 -22
-15 -15 -15 -15 -15 -15 -15 -16 -16 -16 -16 -16 -16 -16 -17 -17 -17 -17 -18 -18 -18 -19 -19 -19 -19 -20 -20 -20 -20 -21 -21 -21 -21 -21 -21 -22 -22 -23
-15 -15 -15 -15 -15 -15 -16 -16 -16 -16 -16 -16 -16 -17 -17 -17 -18 -18 -18 -19 -19 -19 -19 -20 -20 -20 -20 -20 -20 -20 -21 -21 -21 -21 -22 -22 -23 -23
-15 -15 -14 -15 -16 -15 -16 -16 -16 -16 -17 -17 -17 -17 -18 -18 -18 -18 -19 -19 -20 -20 -20 -19 -20 -20 -20 -20 -20 -21 -21 -21 -22 -22 -23 -23 -24 -25
-15 -16 -16 -16 -16 -16 -16 -16 -17 -16 -17 -17 -17 -17 -17 -17 -17 -18 -19 -20 -20 -20 -20 -20 -20 -20 -20 -20 -21 -21 -22 -22 -22 -23 -24 -24 -25 -26
-16 -16 -16 -16 -16 -16 -16 -16 -17 -16 -17 -16 -17 -17 -17 -17 -19 -18 -18 -19 -19 -20 -20 -20 -20 -20 -20 -21 -21 -22 -22 -22 -23 -24 -25 -26 -27 -27
-16 -16 -16 -16 -16 -16 -16 -17 -17 -17 -17 -17 -18 -18 -18 -18 -18 -18 -18 -19 -20 -20 -20 -20 -21 -21 -21 -21 -21 -22 -22 -23 -24 -24 -25 -27 -28 -28
-17 -17 -17 -17 -17 -17 -17 -17 -18 -17 -17 -18 -18 -18 -18 -18 -18 -18 -19 -19 -20 -20 -21 -21 -21 -21 -22 -21 -22 -23 -23 -25 -25 -26 -27 -28 -29 -29
-18 -18 -17 -17 -17 -17 -17 -18 -18 -18 -18 -18 -18 -18 -18 -18 -18 -19 -19 -20 -21 -21 -21 -22 -22 -22 -22 -22 -23 -24 -25 -26 -27 -28 -29 -29 -30 -31
-18 -18 -18 -18 -18 -18 -18 -18 -18 -18 -18 -18 -18 -19 -19 -19 -20 -20 -21 -21 -21 -21 -22 -22 -22 -22 -23 -23 -23 -24 -26 -27 -29 -29 -30 -31 -31 -32
-18 -18 -18 -18 -17 -18 -18 -18 -18 -18 -18 -18 -19 -19 -20 -20 -21 -21 -21 -21 -21 -22 -22 -22 -23 -23 -23 -24 -24 -25 -27 -28 -29 -30 -31 -32 -33 -33
-18 -18 -18 -18 -18 -18 -18 -18 -18 -18 -19 -19 -20 -20 -21 -21 -21 -21 -22 -22 -22 -22 -22 -23 -23 -24 -24 -25 -26 -27 -28 -29 -31 -31 -32 -33 -34 -35
-18 -18 -18 -18 -18 -19 -19 -19 -20 -20 -20 -20 -21 -21 -21 -22 -22 -22 -22 -22 -22 -22 -23 -23 -24 -24 -25 -26 -28 -28 -30 -30 -32 -33 -34 -35 -35 -36
-19 -18 -19 -19 -19 -20 -20 -20 -20 -20 -21 -21 -21 -21 -21 -21 -21 -22 -22 -22 -22 -23 -23 -24 -25 -26 -26 -27 -29 -31 -32 -32 -33 -34 -35 -36 -37 -37
-20 -20 -20 -20 -20 -20 -21 -21 -21 -22 -21 -21 -21 -22 -22 -22 -22 -23 -23 -23 -23 -23 -24 -26 -26 -27 -28 -29 -30 -31 -33 -33 -34 -35 -36 -37 -38 -39
-20 -20 -21 -21 -21 -21 -22 -22 -22 -22 -22 -22 -22 -23 -23 -23 -23 -23 -23 -23 -24 -25 -26 -27 -28 -30 -31 -31 -31 -32 -34 -34 -35 -36 -37 -38 -39 -39
-21 -21 -21 -22 -22 -22 -22 -22 -22 -23 -23 -23 -24 -23 -23 -23 -23 -24 -25 -25 -27 -28 -29 -30 -30 -31 -32 -32 -33 -34 -35 -35 -36 -36 -37 -38 -39 -39
-22 -22 -22 -22 -23 -23 -23 -23 -24 -24 -24 -24 -24 -24 -24 -24 -25 -26 -27 -28 -29 -30 -30 -31 -31 -32 -33 -33 -34 -35 -36 -36 -37 -38 -39 -39 -39 -39

GFSNE_500_temp_072.txt.gz
Temp
-15 -15 -15 -15 -16 -16 -16 -16 -16 -15 -15 -16 -16 -16 -16 -16 -16 -16 -15 -16 -16 -16 -16 -16 -16 -17 -17 -17 -17 -17 -18 -18 -18 -18 -19 -19 -19 -20
-15 -15 -15 -16 -15 -15 -16 -16 -16 -15 -14 -16 -15 -16 -15 -15 -16 -16 -16 -16 -16 -16 -16 -17 -17 -17 -17 -17 -17 -17 -18 -18 -19 -19 -19 -19 -20 -20
-15 -15 -15 -16 -15 -15 -15 -16 -16 -15 -15 -15 -15 -16 -15 -15 -16 -16 -16 -16 -16 -16 -17 -17 -18 -18 -18 -18 -18 -18 -18 -18 -19 -19 -19 -20 -20 -20
-15 -15 -15 -15 -15 -15 -15 -16 -15 -15 -15 -15 -16 -15 -15 -16 -15 -16 -16 -16 -16 -16 -17 -18 -18 -18 -19 -18 -18 -19 -19 -19 -19 -20 -19 -20 -20 -20
-15 -15 -15 -15 -15 -15 -16 -15 -15 -15 -15 -15 -16 -15 -15 -16 -16 -16 -17 -17 -17 -17 -17 -17 -18 -18 -19 -19 -19 -19 -20 -20 -20 -20 -20 -20 -20 -20
-15 -15 -15 -15 -15 -15 -15 -15 -15 -15 -16 -15 -16 -15 -16 -16 -16 -16 -17 -17 -17 -17 -17 -18 -18 -19 -19 -19 -19 -19 -20 -20 -20 -20 -20 -20 -20 -20
-15 -16 -16 -16 -16 -16 -16 -16 -16 -16 -15 -16 -16 -16 -16 -16 -16 -16 -16 -16 -17 -17 -18 -17 -18 -19 -19 -19 -19 -20 -20 -20 -20 -20 -20 -20 -21 -21
-15 -15 -15 -15 -16 -16 -16 -16 -16 -16 -16 -16 -16 -16 -15 -16 -16 -16 -17 -17 -17 -17 -17 -17 -19 -19 -19 -19 -19 -19 -20 -20 -20 -21 -21 -21 -21 -21
-15 -15 -15 -15 -16 -16 -16 -16 -16 -16 -16 -16 -16 -16 -16 -16 -17 -17 -17 -17 -18 -18 -18 -19 -19 -19 -19 -20 -20 -20 -20 -20 -21 -21 -21 -21 -22 -22
-16 -16 -16 -16 -16 -16 -16 -16 -16 -16 -16 -16 -16 -16 -16 -16 -16 -17 -17 -17 -17 -18 -18 -19 -19 -19 -19 -20 -19 -20 -21 -21 -21 -22 -22 -22 -22 -23
-16 -16 -16 -16 -16 -16 -16 -16 -16 -16 -16 -17 -17 -17 -17 -16 -17 -17 -17 -18 -18 -18 -19 -19 -18 -18 -19 -19 -20 -21 -21 -21 -22 -22 -22 -22 -23 -23
-16 -16 -16 -16 -16 -16 -16 -16 -17 -17 -17 -17 -17 -17 -17 -17 -17 -18 -18 -18 -18 -18 -18 -18 -18 -18 -19 -20 -21 -21 -21 -22 -22 -22 -22 -23 -24 -24
-16 -16 -16 -16 -16 -16 -17 -17 -17 -17 -17 -17 -17 -18 -17 -17 -18 -18 -18 -19 -19 -19 -19 -18 -19 -19 -20 -20 -21 -22 -22 -22 -22 -23 -24 -24 -25 -25
-16 -16 -16 -16 -16 -17 -16 -17 -18 -18 -18 -18 -18 -18 -18 -18 -18 -18 -19 -19 -19 -18 -19 -20 -20 -20 -21 -21 -21 -21 -22 -22 -23 -24 -24 -25 -26 -27
-15 -16 -16 -16 -17 -17 -17 -18 -18 -18 -18 -18 -18 -18 -18 -18 -18 -19 -19 -19 -19 -20 -20 -20 -21 -21 -21 -21 -21 -22 -22 -23 -23 -24 -25 -26 -28 -29
-16 -16 -17 -17 -17 -17 -17 -18 -18 -18 -18 -18 -18 -18 -18 -18 -19 -20 -20 -20 -20 -21 -21 -21 -21 -21 -21 -22 -22 -22 -23 -23 -24 -25 -26 -28 -29 -30
-17 -17 -17 -17 -17 -17 -17 -18 -18 -18 -18 -19 -19 -19 -20 -20 -21 -21 -21 -21 -21 -20 -21 -21 -21 -21 -22 -22 -22 -23 -23 -24 -26 -26 -27 -29 -30 -32
-17 -17 -17 -17 -18 -18 -19 -19 -19 -20 -20 -20 -20 -20 -20 -20 -21 -21 -21 -21 -21 -21 -22 -22 -22 -22 -23 -22 -23 -23 -24 -25 -27 -28 -30 -31 -32 -33
-18 -18 -19 -19 -20 -20 -20 -20 -20 -20 -20 -20 -20 -20 -20 -21 -21 -21 -21 -21 -21 -22 -22 -22 -22 -23 -23 -23 -23 -25 -26 -28 -29 -31 -32 -32 -33 -34
-19 -19 -20 -20 -20 -20 -21 -21 -20 -20 -21 -21 -21 -21 -21 -21 -22 -22 -22 -22 -23 -23 -23 -24 -23 -23 -24 -24 -24 -27 -29 -30 -31 -32 -33 -34 -35 -36
-20 -21 -21 -21 -21 -21 -21 -21 -21 -21 -21 -21 -22 -22 -22 -22 -22 -23 -23 -23 -24 -24 -23 -24 -24 -25 -26 -27 -27 -29 -30 -32 -32 -33 -34 -35 -36 -37
-21 -21 -21 -21 -21 -21 -22 -22 -22 -22 -22 -22 -23 -23 -23 -24 -24 -24 -24 -24 -24 -24 -25 -26 -27 -28 -29 -29 -30 -31 -32 -33 -34 -34 -35 -36 -37 -39
-22 -22 -22 -22 -22 -23 -23 -23 -23 -23 -24 -24 -24 -24 -25 -24 -24 -24 -25 -26 -27 -28 -28 -29 -30 -30 -30 -31 -32 -33 -34 -35 -35 -36 -37 -38 -39 -39

GFSNE_500_temp_078.txt.gz
Temp
-14 -15 -15 -15 -15 -16 -15 -15 -15 -15 -15 -16 -16 -16 -16 -16 -16 -16 -16 -15 -15 -15 -16 -16 -16 -16 -16 -16 -17 -16 -16 -17 -17 -17 -17 -17 -17 -17
-14 -14 -15 -15 -15 -15 -16 -15 -15 -15 -15 -16 -16 -16 -16 -16 -16 -16 -16 -16 -16 -16 -16 -16 -16 -16 -16 -16 -16 -17 -17 -17 -17 -17 -17 -17 -17 -18
-14 -15 -15 -15 -15 -15 -15 -15 -15 -15 -14 -16 -16 -16 -16 -16 -16 -16 -16 -16 -15 -16 -16 -16 -16 -16 -16 -16 -16 -16 -17 -17 -17 -17 -18 -17 -18 -18
-15 -15 -15 -15 -15 -15 -15 -15 -15 -15 -15 -15 -16 -16 -16 -16 -16 -16 -16 -16 -16 -16 -16 -15 -16 -16 -16 -16 -16 -17 -17 -17 -17 -18 -18 -18 -19 -19
-15 -15 -15 -15 -15 -15 -15 -15 -15 -15 -15 -15 -15 -15 -15 -15 -16 -16 -16 -16 -16 -16 -16 -16 -16 -16 -16 -16 -17 -17 -17 -17 -17 -18 -18 -18 -18 -18
-15 -15 -15 -15 -15 -15 -15 -15 -15 -15 -16 -16 -15 -15 -15 -15 -15 -16 -16 -16 -16 -16 -16 -16 -16 -16 -16 -17 -17 -17 -17 -17 -18 -19 -18 -18 -18 -18
-15 -15 -15 -15 -16 -16 -16 -16 -16 -16 -16 -16 -16 -16 -16 -16 -16 -16 -16 -16 -16 -16 -16 -16 -16 -16 -17 -17 -17 -17 -17 -17 -18 -18 -18 -18 -19 -19
-16 -16 -16 -16 -16 -17 -16 -16 -16 -16 -16 -16 -16 -16 -16 -16 -16 -16 -16 -16 -16 -16 -16 -16 -16 -17 -17 -17 -17 -17 -18 -18 -18 -18 -19 -19 -18 -19
-17 -17 -16 -17 -17 -17 -17 -17 -17 -17 -16 -17 -16 -16 -16 -16 -16 -16 -16 -16 -16 -16 -16 -16 -17 -17 -17 -18 -17 -18 -18 -18 -18 -18 -18 -19 -19 -19
-16 -17 -17 -17 -17 -17 -17 -17 -17 -17 -17 -17 -17 -16 -16 -16 -16 -16 -16 -16 -16 -16 -16 -16 -17 -17 -17 -18 -18 -18 -18 -18 -18 -19 -19 -19 -20 -20
-16 -16 -16 -16 -17 -17 -17 -17 -17 -17 -17 -17 -16 -17 -16 -16 -16 -16 -16 -16 -16 -16 -16 -17 -17 -17 -17 -17 -18 -18 -19 -18 -19 -19 -20 -20 -21 -21
-16 -16 -16 -16 -16 -17 -17 -17 -17 -17 -16 -16 -16 -16 -16 -16 -16 -16 -16 -16 -17 -17 -17 -17 -17 -18 -18 -17 -18 -19 -19 -19 -19 -20 -21 -21 -21 -21
-16 -16 -16 -16 -16 -16 -17 -17 -17 -17 -16 -16 -15 -16 -16 -16 -16 -16 -16 -17 -17 -17 -17 -18 -17 -18 -18 -18 -19 -19 -19 -20 -20 -21 -21 -21 -21 -21
-16 -16 -15 -15 -15 -15 -16 -17 -17 -17 -16 -16 -17 -17 -16 -16 -16 -17 -17 -18 -18 -17 -18 -18 -18 -18 -18 -19 -19 -20 -20 -21 -21 -21 -21 -21 -21 -21
-16 -16 -16 -16 -16 -16 -16 -16 -17 -17 -17 -16 -16 -16 -16 -17 -17 -18 -18 -18 -18 -18 -19 -18 -18 -19 -19 -20 -20 -21 -20 -21 -21 -21 -22 -22 -22 -22
-16 -16 -17 -17 -16 -17 -16 -16 -16 -17 -16 -17 -16 -17 -17 -17 -19 -18 -18 -18 -19 -19 -19 -20 -20 -20 -21 -21 -21 -21 -21 -21 -22 -22 -21 -21 -22 -22
-17 -17 -18 -18 -17 -17 -17 -17 -17 -17 -17 -17 -17 -18 -18 -18 -18 -19 -19 -19 -21 -21 -21 -21 -21 -21 -21 -21 -21 -21 -21 -21 -21 -21 -22 -22 -22 -22
-18 -19 -19 -18 -18 -17 -18 -17 -17 -18 -18 -18 -18 -19 -20 -19 -20 -20 -21 -21 -21 -21 -21 -21 -21 -22 -22 -21 -22 -21 -22 -22 -22 -22 -22 -22 -22 -23
-19 -20 -20 -19 -19 -19 -19 -19 -19 -20 -19 -19 -20 -21 -21 -21 -21 -21 -21 -21 -21 -21 -21 -22 -22 -22 -22 -22 -22 -23 -23 -22 -23 -23 -22 -23 -23 -23
-20 -20 -20 -20 -20 -20 -20 -20 -21 -21 -21 -21 -21 -21 -21 -21 -21 -21 -21 -21 -21 -22 -22 -22 -22 -22 -22 -23 -23 -23 -23 -23 -23 -23 -24 -24 -26 -27
-21 -21 -21 -21 -21 -21 -21 -21 -22 -22 -22 -22 -22 -22 -22 -22 -22 -22 -22 -22 -22 -23 -23 -23 -23 -23 -23 -23 -23 -24 -24 -24 -24 -24 -26 -27 -28 -29
-22 -22 -22 -22 -22 -22 -22 -22 -22 -22 -22 -22 -23 -23 -23 -23 -23 -23 -23 -23 -23 -23 -24 -24 -24 -24 -24 -25 -26 -26 -26 -28 -28 -28 -29 -29 -30 -32
-23 -23 -23 -23 -23 -23 -23 -23 -23 -23 -23 -23 -23 -23 -23 -24 -24 -24 -24 -24 -24 -25 -25 -26 -26 -28 -27 -28 -29 -29 -30 -30 -30 -31 -32 -33 -33 -35

GFSNE_500_temp_081.txt.gz
Temp
-14 -15 -14 -14 -14 -15 -15 -15 -15 -15 -16 -16 -16 -16 -16 -16 -16 -16 -16 -16 -16 -16 -16 -16 -16 -16 -16 -15 -16 -16 -16 -16 -16 -16 -16 -16 -16 -17
-15 -15 -15 -15 -15 -15 -15 -15 -15 -15 -15 -16 -16 -16 -16 -16 -16 -16 -16 -16 -16 -16 -16 -16 -16 -15 -15 -15 -16 -16 -16 -16 -16 -16 -16 -16 -17 -17
-15 -15 -15 -15 -15 -15 -15 -16 -16 -16 -15 -15 -16 -16 -16 -16 -16 -16 -16 -16 -16 -16 -16 -16 -16 -16 -15 -15 -16 -16 -16 -16 -16 -16 -17 -17 -17 -17
-14 -14 -14 -14 -14 -15 -15 -15 -16 -16 -15 -15 -15 -15 -16 -16 -16 -16 -16 -16 -16 -16 -17 -16 -16 -16 -16 -16 -16 -16 -16 -16 -17 -16 -17 -17 -17 -18
-14 -14 -14 -14 -14 -15 -15 -15 -15 -15 -15 -15 -15 -16 -16 -16 -16 -16 -16 -16 -17 -17 -17 -17 -16 -16 -16 -16 -16 -16 -16 -17 -16 -17 -17 -17 -17 -18
-14 -14 -14 -14 -15 -15 -15 -15 -15 -15 -15 -15 -15 -15 -15 -16 -16 -16 -16 -17 -17 -17 -16 -16 -16 -16 -17 -17 -17 -17 -17 -17 -17 -17 -17 -17 -17 -18
-15 -15 -15 -15 -16 -16 -16 -16 -16 -16 -16 -15 -15 -15 -16 -16 -16 -16 -16 -16 -16 -16 -16 -17 -17 -16 -17 -17 -16 -17 -17 -17 -17 -17 -17 -18 -18 -18
-15 -16 -16 -15 -15 -16 -16 -16 -16 -16 -16 -16 -15 -15 -16 -16 -16 -16 -17 -17 -16 -17 -17 -17 -17 -17 -17 -16 -17 -17 -17 -18 -18 -18 -18 -18 -19 -18
-16 -16 -16 -16 -16 -16 -16 -16 -16 -16 -16 -16 -16 -16 -16 -16 -16 -17 -16 -17 -17 -17 -16 -16 -17 -17 -17 -16 -16 -17 -17 -18 -18 -18 -18 -18 -18 -18
-16 -16 -16 -16 -17 -17 -17 -17 -17 -17 -17 -17 -16 -16 -16 -16 -17 -17 -17 -17 -17 -17 -17 -16 -16 -16 -16 -17 -17 -17 -17 -17 -18 -18 -18 -18 -18 -18
-17 -17 -16 -16 -16 -17 -17 -17 -17 -17 -17 -17 -17 -16 -16 -16 -16 -16 -16 -17 -17 -16 -16 -15 -16 -16 -16 -16 -17 -17 -17 -18 -18 -18 -18 -18 -18 -18
-16 -16 -16 -16 -16 -16 -16 -17 -17 -17 -17 -17 -17 -17 -17 -17 -17 -17 -17 -16 -16 -16 -17 -16 -16 -16 -16 -17 -18 -18 -18 -18 -18 -18 -18 -19 -19 -19
-16 -16 -16 -16 -16 -16 -16 -16 -16 -16 -16 -17 -16 -16 -16 -16 -17 -16 -16 -16 -16 -16 -16 -16 -17 -17 -17 -17 -18 -18 -18 -18 -18 -18 -18 -19 -19 -20
-16 -16 -16 -16 -14 -16 -16 -16 -16 -15 -16 -16 -16 -16 -16 -16 -16 -16 -16 -16 -17 -17 -16 -17 -18 -18 -18 -18 -19 -19 -19 -19 -19 -20 -20 -21 -22 -22
-17 -17 -17 -17 -16 -15 -16 -16 -16 -17 -17 -17 -17 -17 -17 -16 -17 -16 -16 -16 -16 -17 -17 -18 -18 -19 -18 -18 -19 -19 -20 -21 -21 -21 -21 -21 -21 -21
-17 -17 -17 -17 -17 -17 -17 -18 -18 -17 -17 -17 -17 -19 -18 -17 -17 -17 -17 -17 -17 -18 -18 -19 -19 -19 -19 -20 -21 -21 -21 -21 -21 -21 -22 -22 -22 -22
-18 -18 -18 -18 -18 -18 -18 -18 -18 -18 -18 -18 -18 -19 -19 -18 -18 -18 -18 -19 -19 -19 -20 -20 -21 -21 -21 -21 -21 -21 -21 -21 -21 -21 -21 -21 -22 -22
-19 -19 -19 -19 -19 -19 -19 -19 -20 -20 -20 -20 -20 -20 -20 -20 -20 -20 -20 -20 -20 -21 -21 -21 -21 -22 -22 -21 -21 -22 -22 -22 -22 -22 -22 -22 -22 -22
-20 -19 -20 -20 -20 -20 -21 -21 -21 -21 -21 -21 -21 -21 -21 -20 -21 -21 -21 -22 -22 -22 -22 -22 -22 -22 -22 -22 -23 -23 -23 -23 -23 -23 -23 -22 -23 -23
-21 -21 -21 -21 -21 -22 -22 -22 -22 -22 -22 -22 -22 -22 -22 -22 -22 -22 -22 -22 -22 -23 -23 -23 -23 -23 -23 -24 -24 -24 -24 -23 -23 -23 -23 -23 -24 -24
-24 -24 -24 -24 -24 -23 -23 -23 -23 -23 -23 -23 -23 -23 -23 -23 -23 -23 -23 -23 -23 -24 -24 -24 -24 -24 -24 -24 -24 -24 -24 -24 -24 -24 -24 -24 -26 -27
-24 -24 -24 -24 -24 -24 -24 -24 -24 -24 -23 -23 -23 -23 -23 -23 -23 -23 -24 -24 -24 -24 -24 -24 -25 -25 -25 -25 -26 -26 -26 -27 -28 -29 -29 -28 -28 -29
-25 -25 -25 -24 -25 -25 -24 -24 -24 -24 -24 -24 -24 -25 -25 -25 -25 -25 -25 -25 -25 -25 -26 -26 -26 -27 -27 -28 -29 -30 -30 -30 -30 -30 -31 -30 -31 -32

GFSNE_500_temp_084.txt.gz
Temp
-14 -13 -13 -14 -14 -14 -14 -15 -15 -15 -15 -15 -16 -16 -16 -16 -16 -16 -16 -16 -16 -16 -16 -16 -16 -16 -16 -16 -16 -16 -16 -16 -16 -16 -16 -16 -16 -16
-14 -14 -14 -14 -15 -15 -15 -15 -15 -15 -15 -16 -16 -16 -16 -16 -16 -16 -16 -16 -16 -16 -16 -16 -16 -16 -16 -16 -16 -16 -16 -16 -16 -16 -16 -16 -16 -16
-14 -14 -15 -15 -15 -15 -15 -15 -15 -15 -15 -16 -16 -16 -16 -16 -16 -16 -16 -16 -15 -16 -16 -16 -17 -16 -16 -16 -16 -16 -16 -16 -16 -16 -16 -16 -16 -16
-14 -14 -14 -15 -15 -15 -15 -15 -15 -15 -15 -15 -16 -16 -16 -16 -16 -16 -16 -16 -16 -16 -16 -17 -17 -17 -17 -17 -17 -17 -16 -16 -16 -16 -16 -16 -16 -17
-14 -15 -15 -15 -14 -14 -14 -14 -14 -15 -15 -15 -15 -15 -16 -16 -16 -16 -16 -16 -16 -16 -17 -17 -17 -17 -17 -17 -16 -16 -16 -16 -16 -16 -16 -16 -16 -17
-15 -15 -15 -15 -15 -15 -15 -15 -15 -15 -15 -15 -15 -15 -15 -16 -15 -16 -16 -16 -16 -17 -17 -17 -17 -17 -17 -17 -17 -17 -17 -16 -16 -16 -17 -17 -17 -17
-15 -15 -15 -15 -15 -15 -15 -15 -15 -15 -15 -15 -14 -15 -15 -16 -16 -16 -15 -16 -16 -16 -16 -16 -17 -17 -17 -17 -17 -17 -17 -17 -17 -17 -17 -17 -17 -17
-15 -16 -16 -15 -16 -16 -16 -16 -16 -16 -16 -16 -15 -15 -15 -16 -16 -16 -16 -17 -16 -17 -17 -17 -17 -17 -17 -18 -17 -17 -17 -17 -17 -16 -17 -17 -17 -17
-16 -16 -16 -16 -16 -16 -16 -16 -16 -16 -16 -15 -15 -15 -15 -16 -16 -16 -16 -16 -16 -17 -17 -17 -18 -18 -18 -17 -17 -17 -17 -17 -17 -16 -16 -16 -17 -17
-15 -16 -16 -16 -16 -16 -16 -16 -17 -17 -16 -16 -16 -15 -15 -15 -16 -16 -16 -16 -16 -16 -16 -17 -17 -17 -17 -16 -16 -16 -16 -17 -16 -16 -16 -17 -17 -17
-16 -16 -16 -16 -16 -16 -16 -16 -16 -16 -16 -16 -16 -16 -16 -16 -16 -16 -16 -17 -17 -17 -17 -17 -17 -16 -16 -16 -17 -16 -16 -16 -17 -17 -17 -17 -17 -17
-16 -16 -16 -16 -16 -15 -16 -16 -16 -16 -16 -16 -16 -16 -16 -16 -16 -16 -17 -16 -17 -17 -17 -17 -16 -16 -17 -17 -16 -16 -16 -17 -17 -17 -17 -18 -18 -18
-16 -16 -16 -16 -16 -15 -16 -16 -16 -16 -16 -16 -16 -16 -16 -16 -16 -16 -16 -16 -16 -17 -17 -17 -17 -17 -17 -17 -17 -17 -17 -17 -18 -18 -18 -19 -18 -18
-17 -17 -17 -17 -17 -17 -16 -16 -17 -17 -17 -16 -17 -16 -17 -16 -16 -17 -17 -17 -17 -17 -17 -18 -18 -18 -17 -17 -17 -18 -18 -18 -19 -19 -19 -19 -19 -19
-17 -17 -17 -17 -17 -17 -17 -17 -17 -18 -17 -17 -17 -17 -17 -17 -18 -18 -18 -19 -19 -19 -19 -18 -19 -19 -19 -18 -18 -19 -19 -19 -20 -20 -21 -21 -21 -21
-19 -18 -18 -18 -18 -18 -18 -18 -18 -18 -18 -18 -18 -18 -18 -18 -18 -18 -18 -18 -19 -20 -20 -20 -20 -20 -20 -20 -21 -21 -21 -21 -21 -21 -21 -21 -22 -22
-19 -19 -19 -19 -19 -19 -19 -19 -19 -19 -19 -19 -19 -19 -19 -20 -20 -20 -20 -21 -21 -21 -21 -21 -21 -21 -21 -22 -22 -22 -22 -22 -22 -22 -22 -22 -22 -22
-20 -20 -20 -20 -20 -20 -20 -20 -20 -20 -20 -20 -21 -21 -21 -21 -22 -22 -22 -22 -22 -22 -22 -22 -23 -23 -23 -23 -23 -23 -23 -23 -23 -23 -23 -23 -23 -23
-20 -20 -20 -20 -20 -20 -21 -22 -23 -24 -24 -24 -24 -24 -24 -24 -23 -23 -23 -23 -23 -23 -23 -23 -23 -23 -23 -23 -23 -23 -23 -23 -24 -24 -24 -24 -23 -23
-21 -21 -22 -23 -23 -24 -24 -24 -24 -24 -24 -24 -24 -24 -24 -24 -24 -24 -24 -24 -24 -24 -24 -24 -24 -24 -24 -24 -25 -25 -24 -24 -24 -24 -24 -24 -24 -25
-23 -23 -23 -23 -23 -23 -24 -24 -24 -24 -24 -25 -25 -25 -25 -25 -25 -25 -25 -25 -25 -25 -25 -25 -25 -25 -25 -25 -25 -25 -26 -25 -25 -25 -25 -24 -25 -27
-23 -23 -23 -24 -24 -24 -24 -24 -24 -25 -25 -25 -25 -25 -25 -25 -25 -25 -26 -26 -26 -26 -26 -26 -26 -26 -26 -26 -26 -26 -27 -27 -28 -28 -28 -28 -28 -28
-23 -23 -24 -24 -24 -25 -25 -25 -25 -25 -26 -26 -26 -26 -26 -26 -27 -27 -27 -27 -27 -27 -27 -27 -27 -27 -27 -28 -29 -29 -30 -30 -31 -31 -30 -30 -31 -30

GFSNE_500_temp_087.txt.gz
Temp
-13 -13 -14 -14 -14 -14 -14 -15 -15 -15 -14 -15 -15 -15 -16 -16 -16 -16 -16 -16 -16 -16 -16 -16 -16 -16 -16 -16 -16 -16 -16 -16 -16 -16 -16 -16 -16 -16
-14 -14 -14 -14 -14 -14 -14 -15 -14 -14 -14 -15 -15 -15 -16 -16 -16 -16 -16 -16 -16 -16 -16 -16 -16 -16 -16 -16 -16 -16 -16 -16 -16 -16 -16 -16 -16 -16
-14 -14 -14 -14 -14 -14 -15 -14 -14 -14 -14 -15 -15 -15 -15 -15 -16 -16 -16 -16 -16 -16 -16 -16 -16 -16 -16 -16 -16 -16 -16 -16 -16 -16 -16 -16 -16 -16
-14 -14 -14 -14 -14 -14 -15 -14 -15 -15 -15 -15 -15 -15 -15 -15 -16 -16 -16 -16 -16 -16 -16 -16 -16 -16 -16 -16 -16 -16 -16 -17 -17 -17 -16 -16 -16 -16
-14 -14 -14 -14 -14 -14 -14 -15 -15 -15 -15 -14 -14 -15 -15 -15 -15 -15 -15 -15 -16 -16 -16 -16 -16 -16 -16 -16 -16 -17 -17 -17 -16 -16 -16 -16 -16 -16
-14 -14 -15 -15 -15 -15 -15 -15 -15 -14 -14 -14 -14 -15 -15 -16 -15 -15 -16 -16 -16 -16 -16 -16 -16 -16 -16 -16 -16 -16 -17 -17 -17 -17 -17 -17 -17 -17
-15 -15 -15 -15 -15 -15 -15 -15 -15 -15 -15 -15 -15 -15 -15 -16 -16 -16 -16 -16 -16 -16 -16 -16 -17 -17 -17 -17 -17 -17 -17 -17 -17 -17 -17 -16 -17 -17
-15 -15 -15 -15 -15 -15 -15 -15 -15 -15 -15 -15 -15 -15 -15 -15 -16 -16 -16 -16 -16 -17 -17 -17 -17 -17 -17 -17 -17 -17 -17 -17 -17 -17 -17 -17 -17 -17
-15 -15 -15 -15 -15 -15 -16 -16 -16 -16 -16 -16 -16 -16 -15 -15 -15 -16 -16 -16 -16 -16 -16 -17 -16 -17 -17 -17 -18 -18 -18 -18 -18 -17 -17 -17 -17 -17
-15 -15 -15 -15 -15 -16 -16 -16 -16 -16 -16 -16 -15 -15 -15 -15 -16 -16 -16 -16 -15 -15 -16 -16 -16 -16 -16 -16 -16 -17 -17 -17 -17 -17 -17 -17 -17 -17
-16 -16 -16 -16 -16 -16 -16 -16 -16 -16 -15 -16 -16 -16 -16 -15 -16 -16 -16 -16 -16 -16 -15 -16 -16 -16 -16 -16 -16 -16 -17 -17 -16 -17 -17 -17 -16 -16
-16 -16 -16 -16 -16 -16 -16 -16 -16 -16 -16 -15 -16 -16 -16 -16 -16 -16 -16 -16 -16 -16 -16 -17 -17 -16 -17 -17 -17 -17 -17 -17 -17 -17 -17 -17 -17 -17
-16 -16 -16 -16 -16 -16 -16 -16 -17 -17 -16 -16 -16 -17 -16 -17 -17 -16 -16 -17 -17 -17 -17 -17 -17 -18 -17 -17 -18 -18 -18 -18 -18 -18 -18 -18 -18 -18
-17 -16 -16 -16 -16 -16 -17 -17 -18 -18 -18 -18 -18 -18 -17 -17 -17 -18 -17 -18 -18 -18 -18 -18 -18 -18 -18 -18 -18 -19 -20 -20 -20 -20 -20 -19 -19 -20
-17 -17 -17 -17 -17 -18 -18 -18 -18 -18 -18 -18 -18 -18 -18 -18 -19 -19 -19 -19 -19 -19 -19 -19 -19 -19 -19 -19 -20 -20 -20 -20 -21 -21 -21 -21 -21 -21
-18 -18 -18 -18 -18 -19 -19 -19 -19 -19 -19 -19 -19 -19 -19 -19 -19 -19 -19 -19 -20 -20 -20 -20 -20 -20 -21 -21 -21 -21 -21 -22 -22 -22 -22 -22 -22 -22
-19 -19 -19 -19 -19 -19 -19 -19 -19 -19 -19 -19 -19 -19 -19 -19 -20 -20 -21 -21 -21 -22 -22 -23 -23 -23 -23 -23 -23 -23 -23 -23 -23 -23 -23 -23 -23 -23
-20 -20 -20 -20 -20 -20 -20 -20 -20 -20 -20 -20 -21 -22 -22 -23 -24 -24 -24 -24 -24 -24 -24 -24 -24 -24 -24 -24 -24 -24 -24 -24 -24 -24 -24 -23 -24 -24
-20 -20 -20 -20 -20 -20 -21 -21 -21 -22 -23 -23 -23 -23 -23 -23 -24 -24 -24 -24 -24 -24 -24 -24 -25 -25 -25 -25 -25 -24 -25 -24 -24 -25 -25 -25 -25 -25
-20 -20 -21 -21 -21 -22 -22 -23 -23 -23 -23 -23 -23 -23 -23 -24 -24 -24 -24 -24 -24 -24 -24 -25 -25 -25 -26 -26 -26 -26 -25 -26 -26 -26 -26 -26 -26 -26
-21 -21 -22 -22 -23 -23 -23 -23 -23 -23 -23 -23 -24 -24 -24 -24 -24 -24 -25 -25 -25 -26 -26 -26 -26 -26 -26 -27 -27 -27 -27 -27 -26 -26 -26 -27 -27 -28
-23 -23 -23 -23 -23 -23 -23 -23 -23 -24 -24 -25 -25 -25 -25 -26 -26 -26 -26 -27 -27 -27 -27 -27 -27 -27 -27 -27 -27 -27 -28 -29 -28 -29 -28 -29 -28 -29
-23 -24 -24 -24 -24 -24 -24 -24 -25 -25 -26 -26 -26 -27 -27 -27 -28 -28 -28 -28 -28 -28 -28 -28 -28 -28 -29 -29 -29 -30 -31 -31 -32 -32 -31 -31 -31 -31